Location: Brahman Valley
(40.6513°N, 111.8855°W)
Time: 08:58:44
(UTC+00:00)

Tiros 1 despin weight - Pass Details

Date: 15 May 2021
Orbit: 594 x 641 km, 48.2° (Epoch: 22 June)

Event Time Altitude Azimuth Distance (km) Brightness Sun altitude
Rises 10:10:40 0° 287° (WNW) 2,938 - -18.9°
Reaches altitude 10° 10:13:42 10° 267° (W) 2,020 - -18.5°
Maximum altitude 10:16:40 17° 228° (SW) 1,609 - -18.1°
Drops below altitude 10° 10:19:35 10° 188° (S) 1,999 - -17.8°
Sets 10:22:35 0° 168° (SSE) 2,892 - -17.4°
